Theta_e
301 302 303 304 303 302 301 301 301 301 300 301 302 301 303 305 302 302 304 305 304 304 304 304 302 304 306 308 308 309 310 310 307 310 313 310 309 307 307 308 309 307 308
301 301 300 301 301 300 300 300 301 301 301 301 301 301 301 304 303 300 302 304 304 303 303 304 305 305 303 304 306 304 307 310 309 307 310 309 306 306 306 305 306 307 306
301 300 300 299 299 298 299 300 301 301 301 302 302 301 302 304 300 303 304 304 303 303 303 303 304 303 301 302 302 301 304 307 309 309 306 307 306 306 304 305 305 305 306
301 299 298 298 298 298 299 300 301 301 301 301 302 302 303 301 299 301 304 303 302 302 303 303 303 303 302 301 302 301 301 302 306 307 305 304 304 305 305 303 301 303 301
300 298 298 299 300 300 300 301 301 301 302 302 302 302 300 300 301 298 301 302 302 302 303 303 303 304 304 304 301 301 300 300 303 305 303 303 303 302 301 303 300 299 299
298 298 300 300 301 301 301 301 301 301 301 301 300 301 301 301 301 302 304 302 302 302 298 298 300 300 299 302 304 304 304 301 300 304 303 302 302 302 302 302 300 297 295
298 300 301 301 301 301 301 301 300 300 299 301 299 298 296 296 300 299 301 303 302 299 295 294 296 298 297 296 302 303 303 304 304 303 303 303 302 302 302 302 302 301 296
299 300 301 301 301 301 301 300 300 299 299 299 300 299 295 297 299 299 300 304 302 298 294 294 294 294 296 297 300 301 302 303 301 304 305 304 304 304 304 304 302 300 297
300 300 301 301 300 300 299 299 299 298 298 302 303 300 297 295 298 298 301 303 301 299 297 295 295 295 297 297 300 300 301 302 305 304 303 301 300 301 304 304 301 299 298
300 301 301 301 300 298 297 297 296 296 298 300 301 303 302 299 298 297 298 302 302 300 297 295 298 297 295 296 300 300 300 302 303 304 302 301 301 301 302 302 303 299 298
305 301 301 302 299 297 294 294 294 297 296 294 295 299 302 300 299 297 297 298 297 297 297 295 296 297 295 296 298 300 300 304 302 301 300 299 299 299 299 299 299 299 298
302 302 300 301 301 297 294 293 294 293 293 293 293 293 296 298 297 297 296 296 298 295 294 296 297 295 295 295 298 296 298 302 301 299 298 297 296 297 297 298 298 299 298
298 297 297 298 297 296 293 292 292 292 292 295 296 296 296 298 296 296 296 297 298 297 298 297 297 296 297 299 297 298 299 302 301 299 297 296 297 297 297 297 298 298 298
299 299 300 297 293 293 294 295 296 294 295 295 295 295 296 297 296 296 297 298 299 298 298 298 298 298 298 300 301 301 301 301 299 298 297 297 297 297 296 297 296 296 295
296 298 298 297 293 294 296 296 296 295 294 294 293 294 294 294 294 294 295 296 297 296 297 298 297 298 299 299 299 300 300 300 298 298 297 296 296 296 296 297 296 296 294
297 297 297 297 294 295 297 297 294 294 293 293 293 292 296 293 293 293 293 293 293 294 297 296 296 297 297 298 298 298 299 299 298 298 297 297 296 296 296 297 297 296 294
296 299 296 295 297 297 297 296 294 296 295 294 293 293 292 292 292 293 293 293 293 296 297 297 297 297 298 298 299 299 298 298 299 298 298 297 297 297 296 295 294 293 292
296 297 297 297 297 296 296 296 295 295 294 295 295 294 293 293 293 293 294 296 297 297 298 297 297 298 298 299 299 299 298 298 298 298 298 298 298 297 295 293 291 290 290
297 298 298 297 297 297 297 297 297 296 295 295 296 296 297 294 294 295 296 300 298 298 298 298 299 299 300 300 300 299 298 298 298 298 298 298 297 296 292 291 290 290 290
299 296 296 299 299 299 299 298 297 297 296 296 296 295 297 299 299 299 300 300 299 299 299 299 300 300 301 301 300 300 300 299 298 297 297 295 294 293 292 291 291 291 291
299 300 296 301 300 300 300 299 299 298 297 296 296 294 288 298 298 298 298 299 299 300 300 300 300 301 302 302 301 301 300 298 296 295 294 294 294 293 292 292 293 293 294
299 300 300 300 301 301 301 301 300 299 299 298 298 297 290 299 299 299 299 299 300 300 300 301 301 301 301 302 302 301 299 297 297 297 296 295 295 295 296 296 295 295 296
300 300 300 300 301 299 302 302 300 300 300 300 300 299 299 298 298 298 299 299 301 301 301 301 301 301 301 302 303 300 298 297 297 298 298 298 298 297 298 296 295 296 298
298 298 298 298 300 301 301 301 301 297 300 300 300 300 299 299 299 299 299 300 301 301 301 301 299 299 299 300 301 300 299 300 301 299 301 300 301 299 298 297 297 297 296
298 298 298 297 296 299 300 300 300 300 301 301 301 301 300 301 300 301 301 299 300 299 298 297 296 296 295 295 295 296 290 286 292 288 297 298 298 298 297 296 296 295 294
298 298 297 296 296 296 297 298 299 300 301 302 301 301 301 301 301 301 300 299 298 296 295 294 292 292 293 292 291 288 288 288 293 289 298 298 297 296 295 294 293 292 291
Wind_Speed
7 6 6 6 6 6 5 6 5 5 5 6 5 6 7 7 6 6 7 7 8 7 6 6 6 6 4 4 5 4 4 1 2 1 3 8 8 9 7 8 9 9 11
6 5 5 6 6 6 6 6 5 6 6 6 6 6 6 7 5 6 6 6 7 7 9 6 6 6 6 6 5 6 6 4 2 3 3 4 8 7 7 8 8 8 9
7 6 7 7 6 7 7 7 6 6 6 7 6 5 6 6 5 5 5 7 7 7 7 8 6 6 7 6 6 5 5 5 3 1 3 3 4 6 7 6 7 8 7
7 6 7 7 7 7 7 7 6 6 6 6 6 5 5 5 5 5 5 5 5 5 5 6 7 7 6 7 6 6 6 6 4 2 4 6 6 4 5 4 6 6 6
7 7 8 8 7 7 7 7 6 6 5 6 5 5 4 4 3 5 4 4 4 5 5 5 5 9 14 10 4 6 5 5 4 3 3 5 6 5 6 3 6 6 5
7 8 9 7 7 7 7 6 6 6 6 6 6 5 4 3 8 7 3 3 4 5 6 6 5 9 11 13 9 9 7 4 3 1 2 5 4 6 5 5 6 4 2
7 8 7 6 7 7 6 6 7 6 5 5 5 4 4 5 11 9 5 2 3 4 6 6 6 6 10 7 8 7 6 7 3 3 5 4 6 3 4 4 3 1 3
7 7 6 7 6 7 6 6 6 4 5 3 3 2 4 5 13 10 3 4 4 4 4 6 5 7 8 9 5 6 5 4 2 1 5 6 6 5 3 2 3 6 6
7 7 7 6 6 6 7 7 6 5 4 3 2 4 4 6 13 11 5 3 4 4 3 5 5 6 12 13 5 5 5 5 9 17 17 16 14 9 1 5 5 5 3
7 7 5 4 5 6 6 6 4 3 5 4 5 5 8 5 11 12 8 2 3 2 3 5 10 10 12 10 4 5 6 6 10 11 10 12 11 11 15 7 1 3 3
5 6 5 5 6 6 5 5 6 6 6 7 7 7 7 7 8 13 11 4 3 3 3 4 5 12 11 10 9 6 5 8 12 10 9 8 8 8 7 7 7 3 3
6 6 5 6 6 5 7 6 6 6 6 6 5 5 4 6 10 10 10 7 6 4 3 3 4 10 10 10 7 11 13 9 7 9 8 7 7 7 7 7 7 7 7
6 6 4 6 5 5 6 6 4 5 5 6 5 4 4 5 5 11 9 7 7 4 3 6 10 11 10 8 14 14 10 7 7 8 7 7 6 4 4 5 7 9 11
5 6 5 4 5 5 3 4 5 5 5 5 5 5 4 4 4 5 4 4 5 5 5 5 7 7 9 9 9 9 8 7 6 7 6 5 4 5 7 5 7 7 9
5 4 5 4 4 3 4 3 4 3 3 4 4 4 4 4 4 4 5 4 4 4 4 5 5 6 7 7 7 8 7 7 7 6 6 6 6 6 7 6 6 5 6
5 5 5 4 4 4 3 3 1 1 5 9 10 8 4 6 8 9 9 9 9 8 5 5 6 6 7 6 6 6 6 7 6 6 6 6 6 6 6 5 4 3 3
5 5 4 4 4 4 4 4 5 4 6 7 11 10 7 4 7 9 8 10 11 8 6 6 6 6 6 5 5 6 7 6 6 6 5 5 5 5 4 4 4 4 4
6 10 4 5 4 4 5 4 4 4 5 4 6 7 9 10 9 8 8 7 8 8 6 6 6 5 5 5 5 6 5 5 5 4 4 5 5 4 4 4 4 3 3
5 5 4 4 4 4 3 4 4 4 4 4 4 6 9 11 11 12 10 6 7 6 5 6 5 5 5 5 5 5 5 5 4 4 5 5 4 4 3 3 3 4 3
6 9 6 4 3 4 5 5 5 5 5 5 5 5 5 7 8 8 7 7 7 6 4 5 5 5 5 5 5 4 4 5 4 4 4 4 3 3 3 3 4 4 4
3 4 8 5 6 5 5 5 4 5 5 5 4 4 7 7 7 7 7 6 5 5 4 4 4 4 4 4 4 4 4 4 4 3 3 2 3 2 1 2 3 3 3
3 3 4 6 7 8 6 5 6 6 6 6 5 6 8 7 6 6 6 5 4 4 3 3 3 3 2 2 2 3 4 4 3 3 3 2 2 3 3 3 5 4 4
3 4 5 5 7 7 7 7 6 7 7 6 5 6 6 6 5 5 5 4 4 4 4 5 4 5 5 4 4 4 4 2 2 3 2 2 3 4 4 3 3 4 5
4 4 4 4 4 4 5 4 4 6 4 5 7 8 6 5 5 6 6 5 6 6 6 5 5 6 5 4 3 3 3 2 1 3 4 2 3 5 4 4 5 6 4
4 5 5 4 1 3 3 4 5 4 4 4 5 6 4 5 5 5 6 5 6 7 8 7 6 7 7 7 6 6 4 2 1 1 1 2 3 5 5 4 5 6 7
3 3 4 4 4 4 3 4 5 6 7 6 5 6 6 7 7 7 7 8 8 8 9 7 9 11 10 8 8 8 10 9 8 8 6 6 7 5 5 6 8 5 6
Wind_Direction
356 352 350 336 329 324 325 314 301 305 305 310 314 313 311 313 323 318 311 317 322 315 327 321 315 307 316 316 307 308 310 239 267 68 68 119 111 97 83 76 79 81 77
328 345 332 323 325 324 311 296 305 298 296 291 295 308 302 317 341 343 341 338 346 341 333 323 350 350 345 335 335 345 342 325 321 95 104 111 104 108 97 98 96 91 90
333 337 332 321 316 305 296 300 303 302 296 294 298 319 331 347 2 343 349 350 349 1 359 357 358 355 356 342 345 347 341 333 336 75 97 93 93 117 110 103 105 105 85
328 333 312 303 295 290 296 300 302 306 300 300 313 335 352 7 12 338 351 0 11 3 3 359 353 358 351 341 344 355 344 342 337 76 113 113 119 129 118 107 90 84 77
326 307 301 301 302 303 311 317 320 318 317 320 329 10 38 16 350 325 347 357 356 349 345 343 338 360 355 338 346 346 353 345 333 80 93 120 127 131 119 116 103 96 62
309 309 311 311 316 326 327 327 330 332 339 4 27 65 29 336 330 316 310 331 355 354 345 340 340 357 346 341 334 354 349 338 330 352 104 132 107 114 121 123 131 141 120
308 311 312 316 323 333 331 341 344 341 1 45 78 61 19 334 333 322 285 192 52 21 7 353 344 344 344 332 328 1 347 329 297 307 131 117 119 125 129 136 173 93 102
314 313 321 334 336 340 348 352 349 357 24 62 107 89 29 349 345 347 167 172 111 78 24 348 346 336 335 341 331 350 334 323 334 92 99 102 105 114 114 144 118 94 91
326 313 323 329 340 352 3 359 347 1 20 14 19 38 33 5 360 4 47 169 143 103 41 349 1 343 337 347 2 350 356 30 79 92 86 80 70 54 131 123 120 123 106
319 311 325 337 37 29 13 358 345 9 14 24 27 21 28 25 10 1 357 54 134 106 19 351 353 360 354 3 10 358 52 59 96 86 73 57 53 50 48 42 134 111 97
326 346 3 19 43 48 30 8 359 17 42 26 20 8 16 15 3 3 356 37 78 61 22 353 349 1 8 17 26 33 41 77 75 77 72 61 51 47 45 46 43 69 114
334 344 25 53 53 44 45 19 18 20 26 8 5 3 356 0 3 360 2 47 67 79 31 350 351 10 15 28 42 49 54 66 72 71 70 62 60 51 44 50 57 66 60
342 337 34 59 55 51 46 27 18 13 15 11 356 344 352 352 354 352 4 48 69 67 36 27 23 17 15 45 51 49 52 61 71 75 73 65 55 54 66 61 64 71 65
347 356 45 88 63 48 64 52 29 20 11 0 346 344 338 347 354 347 0 36 74 49 31 21 24 23 40 49 54 48 53 55 66 73 73 67 59 61 58 41 60 54 62
21 38 46 66 67 60 48 26 55 34 10 350 343 325 342 347 360 37 42 50 50 43 47 40 33 29 43 50 52 49 48 51 57 61 68 69 64 63 55 38 44 46 76
51 37 36 43 33 20 21 35 36 7 13 21 6 25 31 44 47 44 54 61 53 37 55 51 45 43 48 49 56 57 49 62 58 64 63 60 60 61 58 48 50 61 77
55 53 40 29 22 15 15 13 4 1 37 23 18 23 33 44 31 35 51 60 50 48 56 49 47 45 47 49 43 47 64 56 53 55 59 58 63 62 57 51 43 46 40
42 42 30 26 25 27 20 13 1 8 11 8 359 20 21 27 38 49 33 57 59 44 48 49 48 38 36 39 45 60 64 57 57 58 57 51 47 49 59 53 47 53 37
31 35 35 41 32 9 354 356 11 29 28 27 10 12 6 12 38 42 48 58 67 63 47 47 34 35 39 44 53 59 59 56 49 50 47 57 53 76 76 77 58 44 47
51 24 14 11 18 341 5 28 38 39 40 36 32 12 357 33 46 49 47 54 59 55 44 44 31 34 39 50 53 52 63 55 50 55 65 72 78 81 67 27 12 3 0
14 9 359 15 19 20 23 26 27 40 50 52 39 11 4 47 48 48 50 45 46 40 40 38 40 52 55 53 59 61 64 65 75 89 88 77 61 46 337 281 277 275 258
343 12 6 17 25 33 36 36 37 45 47 47 43 40 29 47 49 54 50 37 25 30 23 44 49 44 30 36 64 73 67 72 50 29 30 27 348 312 305 293 286 273 278
352 348 22 24 36 22 33 36 41 48 53 52 46 48 51 48 37 35 35 27 29 30 18 31 33 35 32 41 53 85 107 132 181 175 182 246 278 291 304 306 323 353 23
323 339 21 36 44 34 10 23 39 30 25 30 55 67 61 54 47 36 35 24 31 31 28 28 26 31 26 35 47 49 38 355 283 290 254 247 317 339 348 360 13 11 37
299 320 353 44 67 189 210 313 348 47 50 41 56 61 53 55 45 37 29 27 37 37 34 29 23 23 28 25 15 2 342 262 15 270 89 63 49 50 59 51 47 49 44
303 355 5 31 51 51 36 36 36 45 70 77 57 56 59 59 54 49 41 39 40 38 33 28 19 22 22 20 15 18 29 29 41 38 53 63 64 56 58 56 50 49 53